When you browse on this site, cookies collect data to enhance your experience and personalize the content and advertising you see.
Visit our Privacy Policy to learn more. By continuing to use the site, you agree to this use of cookies and data.
  • In Czech Republic
  • List of Countries
  • For 7 days
  • Water Temperature
  • Satellite Maps
  • Weather Map
  • Weather Widgets
  • user-avatar
    Login

    Hourly Weather Mesa

    Today, 21 February, Thursday

    Time Temperature Precipitation Wind Pressure Humidity
    00:00 +11°C° 0 mm 1 mps 722 mmHg 27%
    01:00 +10°C° 0 mm 2 mps 722 mmHg 29%
    02:00 +10°C° 0 mm 2 mps 722 mmHg 30%
    03:00 +10°C° 0.1 mm 3 mps 722 mmHg 34%
    04:00 +9°C° 0.1 mm 3 mps 721 mmHg 37%
    05:00 +8°C° 0.1 mm 4 mps 721 mmHg 40%
    06:00 +8°C° 0.4 mm 5 mps 721 mmHg 49%
    07:00 +8°C° 0.4 mm 7 mps 720 mmHg 58%
    08:00 +7°C° 0.4 mm 8 mps 720 mmHg 66%
    09:00 +8°C° 1.7 mm 7 mps 720 mmHg 68%
    10:00 +8°C° 1.7 mm 7 mps 720 mmHg 69%
    11:00 +8°C° 1.7 mm 6 mps 719 mmHg 70%
    12:00 +9°C° 1.2 mm 6 mps 719 mmHg 66%
    13:00 +9°C° 1.2 mm 6 mps 719 mmHg 63%
    14:00 +10°C° 1.2 mm 5 mps 719 mmHg 59%
    15:00 +9°C° 1.2 mm 5 mps 719 mmHg 63%
    16:00 +8°C° 1.2 mm 4 mps 719 mmHg 68%
    17:00 +8°C° 1.2 mm 4 mps 719 mmHg 72%
    18:00 +8°C° 1.6 mm 3 mps 719 mmHg 76%
    19:00 +8°C° 1.6 mm 3 mps 719 mmHg 81%
    20:00 +7°C° 1.6 mm 2 mps 720 mmHg 85%
    21:00 +7°C° 1.6 mm 2 mps 720 mmHg 86%
    22:00 +7°C° 1.6 mm 2 mps 720 mmHg 87%
    23:00 +7°C° 1.6 mm 2 mps 720 mmHg 88%

    Tomorrow, 22 February, Friday

    Time Temperature Precipitation Wind Pressure Humidity
    00:00 +7°C° 1 mm 2 mps 720 mmHg 87%
    01:00 +7°C° 1 mm 2 mps 720 mmHg 86%
    02:00 +8°C° 1 mm 1 mps 721 mmHg 86%
    03:00 +8°C° 0.8 mm 1 mps 721 mmHg 85%
    04:00 +8°C° 0.8 mm 1 mps 721 mmHg 85%
    05:00 +7°C° 0.8 mm 0 mps 721 mmHg 85%
    06:00 +8°C° 0.5 mm 1 mps 721 mmHg 83%
    07:00 +8°C° 0.5 mm 1 mps 722 mmHg 82%
    08:00 +7°C° 0.5 mm 2 mps 723 mmHg 80%
    09:00 +7°C° 0.3 mm 2 mps 724 mmHg 74%
    10:00 +8°C° 0.3 mm 3 mps 724 mmHg 69%
    11:00 +8°C° 0.3 mm 3 mps 725 mmHg 63%
    12:00 +8°C° 0.1 mm 4 mps 725 mmHg 56%
    13:00 +9°C° 0.1 mm 5 mps 725 mmHg 49%
    14:00 +10°C° 0.1 mm 5 mps 725 mmHg 42%
    15:00 +10°C° 0.3 mm 5 mps 726 mmHg 42%
    16:00 +10°C° 0.3 mm 6 mps 726 mmHg 42%
    17:00 +10°C° 0.3 mm 6 mps 726 mmHg 42%
    18:00 +9°C° 0 mm 5 mps 727 mmHg 43%
    19:00 +9°C° 0 mm 5 mps 728 mmHg 44%
    20:00 +8°C° 0 mm 4 mps 729 mmHg 46%
    21:00 +8°C° 0 mm 4 mps 730 mmHg 48%
    22:00 +8°C° 0 mm 3 mps 731 mmHg 50%
    23:00 +8°C° 0 mm 2 mps 732 mmHg 52%

    Day after tomorrow, 23 February, Saturday

    Time Temperature Precipitation Wind Pressure Humidity
    00:00 +7°C° 0 mm 2 mps 732 mmHg 53%
    01:00 +8°C° 0 mm 1 mps 733 mmHg 55%
    02:00 +7°C° 0 mm 1 mps 733 mmHg 56%
    03:00 +7°C° 0 mm 1 mps 733 mmHg 57%
    04:00 +6°C° 0 mm 1 mps 734 mmHg 59%
    05:00 +6°C° 0 mm 1 mps 734 mmHg 60%
    06:00 +6°C° 0 mm 1 mps 735 mmHg 59%
    07:00 +5°C° 0 mm 2 mps 735 mmHg 58%
    08:00 +5°C° 0 mm 2 mps 736 mmHg 57%
    09:00 +6°C° 0 mm 2 mps 736 mmHg 53%
    10:00 +7°C° 0 mm 2 mps 736 mmHg 48%
    11:00 +9°C° 0 mm 2 mps 736 mmHg 44%
    12:00 +11°C° 0 mm 1 mps 735 mmHg 40%
    13:00 +12°C° 0 mm 1 mps 735 mmHg 37%
    14:00 +13°C° 0 mm 1 mps 734 mmHg 34%
    15:00 +13°C° 0 mm 1 mps 734 mmHg 33%
    16:00 +13°C° 0 mm 1 mps 734 mmHg 33%
    17:00 +14°C° 0 mm 2 mps 733 mmHg 32%
    18:00 +13°C° 0 mm 2 mps 734 mmHg 36%
    19:00 +12°C° 0 mm 2 mps 734 mmHg 39%
    20:00 +10°C° 0 mm 2 mps 734 mmHg 43%
    21:00 +10°C° 0 mm 2 mps 735 mmHg 46%
    22:00 +9°C° 0 mm 2 mps 735 mmHg 49%
    23:00 +8°C° 0 mm 2 mps 735 mmHg 52%

    24 February, Sunday

    Time Temperature Precipitation Wind Pressure Humidity
    00:00 +8°C° 0 mm 2 mps 735 mmHg 54%
    01:00 +8°C° 0 mm 2 mps 734 mmHg 55%
    02:00 +7°C° 0 mm 2 mps 734 mmHg 57%
    03:00 +7°C° 0 mm 2 mps 734 mmHg 57%
    04:00 +6°C° 0 mm 2 mps 734 mmHg 57%
    05:00 +6°C° 0 mm 2 mps 733 mmHg 58%
    06:00 +6°C° 0 mm 2 mps 733 mmHg 55%
    07:00 +6°C° 0 mm 2 mps 734 mmHg 53%
    08:00 +7°C° 0 mm 2 mps 734 mmHg 51%
    09:00 +8°C° 0 mm 2 mps 733 mmHg 44%
    10:00 +11°C° 0 mm 1 mps 733 mmHg 38%
    11:00 +13°C° 0 mm 1 mps 732 mmHg 32%
    12:00 +14°C° 0 mm 1 mps 732 mmHg 29%
    13:00 +15°C° 0 mm 1 mps 731 mmHg 26%
    14:00 +18°C° 0 mm 1 mps 731 mmHg 24%
    15:00 +18°C° 0 mm 1 mps 730 mmHg 23%
    16:00 +18°C° 0 mm 1 mps 730 mmHg 23%
    17:00 +19°C° 0 mm 1 mps 730 mmHg 22%
    18:00 +18°C° 0 mm 1 mps 730 mmHg 26%
    19:00 +16°C° 0 mm 2 mps 730 mmHg 30%
    20:00 +15°C° 0 mm 2 mps 731 mmHg 33%
    21:00 +14°C° 0 mm 2 mps 731 mmHg 36%
    22:00 +13°C° 0 mm 2 mps 731 mmHg 39%
    23:00 +13°C° 0 mm 2 mps 731 mmHg 42%

    25 February, Monday

    Time Temperature Precipitation Wind Pressure Humidity
    00:00 +12°C° 0 mm 2 mps 731 mmHg 42%
    01:00 +10°C° 0 mm 2 mps 731 mmHg 43%
    02:00 +10°C° 0 mm 2 mps 731 mmHg 43%
    03:00 +10°C° 0 mm 2 mps 731 mmHg 43%
    04:00 +9°C° 0 mm 2 mps 731 mmHg 43%
    05:00 +9°C° 0 mm 2 mps 731 mmHg 43%
    06:00 +9°C° 0 mm 2 mps 731 mmHg 43%
    07:00 +9°C° 0 mm 2 mps 731 mmHg 42%
    08:00 +9°C° 0 mm 2 mps 731 mmHg 42%
    09:00 +12°C° 0 mm 2 mps 731 mmHg 37%
    10:00 +14°C° 0 mm 1 mps 731 mmHg 33%
    11:00 +16°C° 0 mm 1 mps 731 mmHg 28%
    12:00 +18°C° 0 mm 1 mps 730 mmHg 26%
    13:00 +18°C° 0 mm 0 mps 730 mmHg 24%
    14:00 +19°C° 0 mm 0 mps 729 mmHg 22%
    15:00 +19°C° 0 mm 0 mps 729 mmHg 21%
    16:00 +19°C° 0 mm 0 mps 729 mmHg 20%
    17:00 +19°C° 0 mm 0 mps 729 mmHg 20%
    18:00 +20°C° 0 mm 1 mps 729 mmHg 23%
    19:00 +19°C° 0 mm 1 mps 730 mmHg 26%
    20:00 +18°C° 0 mm 1 mps 730 mmHg 29%
    21:00 +16°C° 0 mm 1 mps 730 mmHg 31%
    22:00 +16°C° 0 mm 2 mps 730 mmHg 34%
    23:00 +15°C° 0 mm 2 mps 731 mmHg 36%

    26 February, Tuesday

    Time Temperature Precipitation Wind Pressure Humidity
    00:00 +14°C° 0 mm 2 mps 731 mmHg 38%
    01:00 +14°C° 0 mm 2 mps 730 mmHg 41%
    02:00 +13°C° 0 mm 2 mps 730 mmHg 43%
    03:00 +13°C° 0 mm 2 mps 730 mmHg 44%
    04:00 +12°C° 0 mm 2 mps 730 mmHg 45%
    05:00 +12°C° 0 mm 2 mps 730 mmHg 46%
    06:00 +12°C° 0 mm 2 mps 730 mmHg 45%
    07:00 +12°C° 0 mm 2 mps 731 mmHg 45%
    08:00 +12°C° 0 mm 2 mps 731 mmHg 44%
    09:00 +14°C° 0 mm 2 mps 731 mmHg 39%
    10:00 +16°C° 0 mm 1 mps 731 mmHg 34%
    11:00 +19°C° 0 mm 1 mps 732 mmHg 29%
    12:00 +20°C° 0 mm 1 mps 731 mmHg 26%
    13:00 +21°C° 0 mm 1 mps 731 mmHg 23%
    14:00 +22°C° 0 mm 1 mps 731 mmHg 20%
    15:00 +22°C° 0 mm 1 mps 731 mmHg 20%
    16:00 +23°C° 0 mm 1 mps 731 mmHg 19%
    17:00 +23°C° 0 mm 1 mps 731 mmHg 18%
    18:00 +22°C° 0 mm 1 mps 731 mmHg 21%
    19:00 +20°C° 0 mm 1 mps 731 mmHg 23%
    20:00 +19°C° 0 mm 1 mps 732 mmHg 26%
    21:00 +19°C° 0 mm 1 mps 732 mmHg 28%
    22:00 +17°C° 0 mm 2 mps 732 mmHg 29%
    23:00 +16°C° 0 mm 2 mps 733 mmHg 31%
    Show more